Date String (YYYY-MM-DD hh:mm:ss) UTC,Instrument flags,absolute air pressure of the measurement (hPa),sample flow rate (lpm),inlet stack bypass flow (lpm),air temperature of the measurement (°C),ambient temperature measured by the external sensor (°C),aerosol sample conditioner tube jacket temperature (°C),OPC LED temperature (°C),internal box temperature (°C),relative humidity of the measurement (%),span deviation,mass concentration of particles derived from Lorenz-Mie calculation of OPC scattering (μg/m³),mass concentration of particles derived from Lorenz-Mie calculation of OPC scattering (μg/m³),mass concentration of particles derived from Lorenz-Mie calculation of OPC scattering (μg/m³)
DateTimeUTC,F1_M11,P_M11,Q1_M11,Q2_M11,T1_M11,T2_M11,T3_M11,T4_M11,T5_M11,U1_M11,ZSPAN_M11,X0_M11,X2_M11,X1_M11
2023-12-19 05:00:00,SystemResetWarning,0826.2,5.00,000.00,022.8,022.1,000.0,031.1,024.2,6.0,0000.0,0001.61,0000.91,0000.63
2023-12-19 05:01:00,SystemResetWarning,0826.2,5.00,000.00,022.8,022.1,000.0,031.1,024.2,5.9,0000.0,0001.37,0000.83,0000.58
2023-12-19 05:02:00,SystemResetWarning,0826.2,5.00,000.00,022.8,022.1,000.0,031.1,024.2,5.7,0000.0,0001.28,0000.75,0000.54
2023-12-19 05:03:00,SystemResetWarning,0826.2,5.00,000.00,022.8,022.1,000.0,031.1,024.1,5.6,0000.0,0002.10,0000.72,0000.52
2023-12-19 05:04:00,SystemResetWarning,0826.2,5.00,000.00,022.9,022.1,000.0,031.1,024.2,5.9,0000.0,0002.21,0000.68,0000.51
2023-12-19 05:05:00,SystemResetWarning,0826.2,5.00,000.00,022.8,022.1,000.0,031.1,024.2,5.8,0000.0,0002.18,0000.67,0000.51
2023-12-19 05:06:00,SystemResetWarning,0826.2,5.01,000.00,022.8,022.1,000.0,031.1,024.2,5.9,0000.0,0002.16,0000.67,0000.52
2023-12-19 05:07:00,SystemResetWarning,0826.2,5.00,000.00,022.9,022.0,000.0,031.1,024.2,5.8,0000.0,0002.12,0000.66,0000.51
2023-12-19 05:08:00,SystemResetWarning,0826.2,5.00,000.00,022.9,022.0,000.0,031.1,024.2,5.9,0000.0,0002.10,0000.64,0000.51
2023-12-19 05:09:00,SystemResetWarning,0826.2,5.00,000.00,022.9,022.0,000.0,031.1,024.2,5.9,0000.0,0002.08,0000.63,0000.51
2023-12-19 05:10:00,SystemResetWarning,0826.2,5.00,000.00,022.9,022.0,000.0,031.1,024.2,5.9,0000.0,0001.96,0000.58,0000.49
2023-12-19 05:11:00,SystemResetWarning,0826.1,4.99,000.00,022.9,022.0,000.0,031.1,024.2,5.9,0000.0,0001.88,0000.55,0000.46
2023-12-19 05:12:00,SystemResetWarning,0826.2,4.99,000.00,022.9,022.0,000.0,031.1,024.2,6.0,0000.0,0001.83,0000.52,0000.45
2023-12-19 05:13:00,SystemResetWarning,0826.2,5.00,000.00,022.9,022.0,000.0,031.1,024.2,5.9,0000.0,0001.81,0000.51,0000.43
2023-12-19 05:14:00,SystemResetWarning,0826.2,5.01,000.00,022.9,022.0,000.0,031.1,024.3,5.8,0000.0,0000.94,0000.49,0000.41
2023-12-19 05:15:00,SystemResetWarning,0826.2,5.00,000.00,022.9,022.0,000.0,031.1,024.2,5.9,0000.0,0000.74,0000.49,0000.39
2023-12-19 05:16:00,SystemResetWarning,0826.2,5.00,000.00,022.9,022.0,000.0,031.2,024.2,6.0,0000.0,0000.70,0000.47,0000.37
2023-12-19 05:17:00,SystemResetWarning,0826.1,4.98,000.00,022.9,022.0,000.0,031.2,024.2,6.1,0000.0,0000.66,0000.44,0000.35
2023-12-19 05:18:00,SystemResetWarning,0826.0,5.00,000.00,022.9,022.0,000.0,031.2,024.2,6.0,0000.0,0000.78,0000.46,0000.35
2023-12-19 05:19:00,SystemResetWarning,0826.0,5.01,000.00,022.9,022.0,000.0,031.2,024.2,6.1,0000.0,0000.83,0000.47,0000.35
2023-12-19 05:20:00,SystemResetWarning,0826.0,5.00,000.00,022.9,022.0,000.0,031.2,024.2,6.0,0000.0,0000.92,0000.50,0000.35
2023-12-19 05:21:00,SystemResetWarning,0826.0,4.98,000.00,022.9,022.0,000.0,031.2,024.2,6.2,0000.0,0000.97,0000.53,0000.36
2023-12-19 05:22:00,SystemResetWarning,0826.0,5.01,000.00,022.9,022.0,000.0,031.2,024.2,6.2,0000.0,0000.98,0000.54,0000.37
2023-12-19 05:23:00,SystemResetWarning,0826.0,5.01,000.00,022.9,022.0,000.0,031.2,024.2,6.1,0000.0,0001.00,0000.55,0000.37
2023-12-19 05:24:00,SystemResetWarning,0826.0,5.00,000.00,022.9,022.0,000.0,031.2,024.2,6.2,0000.0,0000.98,0000.54,0000.38
2023-12-19 05:25:00,SystemResetWarning,0826.0,4.98,000.00,022.9,022.0,000.0,031.2,024.2,6.2,0000.0,0000.97,0000.54,0000.38
2023-12-19 05:26:00,SystemResetWarning,0826.0,5.00,000.00,022.9,022.0,000.0,031.2,024.2,6.0,0000.0,0000.91,0000.52,0000.38
2023-12-19 05:27:00,SystemResetWarning,0826.0,5.02,000.00,022.9,022.0,000.0,031.2,024.2,5.8,0000.0,0000.89,0000.51,0000.38
2023-12-19 05:28:00,SystemResetWarning,0826.0,4.99,000.00,022.9,022.0,000.0,031.2,024.2,5.7,0000.0,0000.93,0000.52,0000.38
2023-12-19 05:29:00,SystemResetWarning,0826.0,4.98,000.00,022.9,022.0,000.0,031.2,024.2,5.9,0000.0,0000.82,0000.50,0000.38
2023-12-19 05:30:00,SystemResetWarning,0826.0,5.02,000.00,022.9,022.0,000.0,031.2,024.2,5.9,0000.0,0000.77,0000.49,0000.38
2023-12-19 05:31:00,SystemResetWarning,0826.0,4.99,000.00,022.9,022.0,000.0,031.2,024.2,5.7,0000.0,0000.69,0000.47,0000.39
2023-12-19 05:32:00,SystemResetWarning,0826.0,4.98,000.00,022.9,022.0,000.0,031.2,024.2,5.7,0000.0,0000.68,0000.45,0000.38
2023-12-19 05:33:00,SystemResetWarning,0826.0,5.00,000.00,022.9,022.0,000.0,031.2,024.2,5.6,0000.0,0000.67,0000.44,0000.37
2023-12-19 05:34:00,SystemResetWarning,0826.0,5.01,000.00,022.9,022.0,000.0,031.2,024.2,5.7,0000.0,0000.69,0000.44,0000.36
2023-12-19 05:35:00,SystemResetWarning,0826.1,5.01,000.00,022.8,022.0,000.0,031.2,024.2,5.9,0000.0,0000.72,0000.45,0000.36
2023-12-19 05:36:00,SystemResetWarning,0826.1,4.99,000.00,022.8,022.0,000.0,031.2,024.1,6.1,0000.0,0000.82,0000.46,0000.37
2023-12-19 05:37:00,SystemResetWarning,0826.2,4.99,000.00,022.8,021.9,000.0,031.2,024.0,6.1,0000.0,0001.39,0000.49,0000.37
2023-12-19 05:38:00,SystemResetWarning,0826.1,4.99,000.00,022.8,021.9,000.0,031.1,024.1,6.1,0000.0,0001.46,0000.50,0000.37
2023-12-19 05:39:00,SystemResetWarning,0826.2,5.00,000.00,022.8,021.9,000.0,031.1,024.1,6.0,0000.0,0001.43,0000.50,0000.36
2023-12-19 05:40:00,SystemResetWarning,0826.1,5.01,000.00,022.8,021.9,000.0,031.1,024.1,6.1,0000.0,0001.41,0000.49,0000.36
2023-12-19 05:41:00,SystemResetWarning,0826.1,5.00,000.00,022.8,021.9,000.0,031.1,024.1,6.1,0000.0,0001.98,0000.47,0000.35
2023-12-19 05:42:00,SystemResetWarning,0826.0,5.00,000.00,022.8,021.9,000.0,031.1,024.1,6.1,0000.0,0003.01,0000.47,0000.35
2023-12-19 05:43:00,SystemResetWarning,0826.0,5.00,000.00,022.8,021.8,000.0,031.1,024.1,6.1,0000.0,0002.97,0000.46,0000.34
2023-12-19 05:44:00,SystemResetWarning,0826.0,4.99,000.00,022.8,021.8,000.0,031.1,024.1,6.1,0000.0,0002.96,0000.46,0000.35
2023-12-19 05:45:00,SystemResetWarning,0825.9,5.00,000.00,022.8,021.8,000.0,031.1,024.1,6.1,0000.0,0002.93,0000.46,0000.35
2023-12-19 05:46:00,SystemResetWarning,0825.9,5.00,000.00,022.8,021.8,000.0,031.1,024.1,6.1,0000.0,0002.90,0000.45,0000.36
2023-12-19 05:47:00,SystemResetWarning,0825.9,5.01,000.00,022.8,021.8,000.0,031.1,024.1,6.1,0000.0,0002.84,0000.45,0000.35
2023-12-19 05:48:00,SystemResetWarning,0825.9,5.00,000.00,022.8,021.8,000.0,031.1,024.1,6.2,0000.0,0002.28,0000.43,0000.35
2023-12-19 05:49:00,SystemResetWarning,0825.9,4.98,000.00,022.8,021.8,000.0,031.1,024.1,6.1,0000.0,0002.21,0000.42,0000.35
2023-12-19 05:50:00,SystemResetWarning,0825.9,5.00,000.00,022.8,021.8,000.0,031.1,024.1,6.1,0000.0,0002.18,0000.40,0000.35
2023-12-19 05:51:00,SystemResetWarning,0825.9,5.01,000.00,022.8,021.8,000.0,031.1,024.1,5.9,0000.0,0002.20,0000.40,0000.35
2023-12-19 05:52:00,SystemResetWarning,0825.9,5.01,000.00,022.8,021.8,000.0,031.1,024.1,6.0,0000.0,0001.93,0000.41,0000.35
2023-12-19 05:53:00,SystemResetWarning,0825.9,5.00,000.00,022.8,021.8,000.0,031.1,024.1,6.1,0000.0,0000.67,0000.40,0000.35
2023-12-19 05:54:00,SystemResetWarning,0825.9,4.99,000.00,022.8,021.8,000.0,031.1,024.1,6.1,0000.0,0000.67,0000.40,0000.34
2023-12-19 05:55:00,SystemResetWarning,0825.9,4.99,000.00,022.8,021.8,000.0,031.1,024.0,6.0,0000.0,0000.65,0000.38,0000.33
2023-12-19 05:56:00,SystemResetWarning,0825.9,5.00,000.00,022.8,021.8,000.0,031.1,024.1,6.1,0000.0,0000.64,0000.38,0000.33
2023-12-19 05:57:00,SystemResetWarning,0825.8,5.01,000.00,022.7,021.8,000.0,031.1,024.0,6.2,0000.0,0000.64,0000.38,0000.32
2023-12-19 05:58:00,SystemResetWarning,0825.8,5.00,000.00,022.7,021.7,000.0,031.1,023.9,6.1,0000.0,0000.60,0000.36,0000.30
2023-12-19 05:59:00,SystemResetWarning,0825.8,5.00,000.00,022.7,021.7,000.0,031.1,024.0,6.1,0000.0,0000.55,0000.34,0000.30
